{"data":{"norad_id":54223,"intl_designator":"2022-145A","name":"COSMOS 2563 (EKS 6)","alt_names":[],"object_type":"PAYLOAD","status":"ACTIVE","operator":null,"country":"CIS","launch_date":"2022-11-02","launch_site_code":"PLMSC","launch_vehicle":null,"mission":null,"orbit_class":"UNKNOWN","rcs_meters":null,"size_class":null,"mass_kg":null,"dimensions":null,"purposes":[],"wikipedia_slug":null,"has_3d_model":false,"image_url":null,"decayed_at":null,"tle_current":{"epoch":"2026-09-15T09:43:57.917280Z","epoch_age_seconds":599022,"freshness":"STALE","line1":"1 54223U 22145A   26258.40553145 -.00001037  00000+0  00000+0 0  9990","line2":"2 54223  63.1669 269.3421 6998179 269.9558  16.9194  2.00620956 28379","mean_motion":2.00620956,"eccentricity":0.6998179,"inclination_deg":63.1669,"raan_deg":269.3421,"arg_perigee_deg":269.9558,"mean_anomaly_deg":16.9194,"bstar":0,"rev_number":2837,"period_min":717.77147747217,"perigee_km":1593.2844161918,"apogee_km":38761.012908293,"semimajor_km":26555.285662242,"source":"CELESTRAK","updated_at":"2026-09-21T09:00:09.450451Z"}}}